Location: Breungeshain
(50.5000°N, 9.2000°E)
Time: 17:47:43
(UTC+00:00)

ISS - Pass Details

Date: 19 May 2018
Orbit: 402 x 407 km, 51.6° (Epoch: 25 May)

Event Time Altitude Azimuth Distance (km) Brightness Sun altitude
Rises 02:03:52 0° 285° (WNW) 2,320 -0.2 -11.0°
Reaches altitude 10° 02:05:57 10° 283° (WNW) 1,459 -1.3 -10.8°
Maximum altitude 02:09:12 70° 200° (SSW) 433 -3.9 -10.5°
Drops below altitude 10° 02:12:27 10° 116° (ESE) 1,455 -0.8 -10.1°
Sets 02:14:32 0° 114° (ESE) 2,312 0.2 -9.9°
